Weather History for Iliamna, AK

Change the Weather History Date:

Tuesday, October 16, 2012

  Actual Average Record
Temperature  
Mean Temperature 24 °F -  
Max Temperature 27 °F 41 °F 56 °F (1969)
Min Temperature 21 °F 30 °F 16 °F (1965)
Degree Days  
Heating Degree Days 41    
Moisture  
Dew Point 13 °F    
Average Humidity 60    
Maximum Humidity 72    
Minimum Humidity 42    
Precipitation  
Precipitation 0.00 in - - ()
Sea Level Pressure  
Sea Level Pressure 29.51 in    
Wind  
Wind Speed 19 mph (NW)    
Max Wind Speed 22 mph    
Max Gust Speed 33 mph    
Visibility 10 miles    
Events      
Averages and records for this station are not official NWS values.
T = Trace of Precipitation, MM = Missing Value Source: NWS Daily Summary

Daily Weather History Graph

Daily Weather History Graph

Search for Another Location

Airport:

Trip Planner

Search our weather history database for the weather conditions in past years. The results will help you decide how hot, cold, wet, or windy it might be!

Date:

Astronomy

Oct. 16, 2012 Rise Set
Actual Time 9:02 AM AKDT 7:06 PM AKDT
Civil Twilight 8:20 AM AKDT 7:48 PM AKDT
Nautical Twilight 7:32 AM AKDT 8:35 PM AKDT
Astronomical Twilight 6:44 AM AKDT 9:23 PM AKDT
Moon 11:16 AM AKDT (10/16) 7:17 PM AKDT (10/16)
Length of Visible Light 11h 27m
Length of Day
10h 03m
Waxing Crescent, 3% of the Moon is Illuminated
Oct 16
Waxing Crescent
Oct 21
First Quarter
Oct 29
Full
Nov 6
Last Quarter
Nov 13
New

Hourly Weather History & Observations

Time (AKDT) Temp. Windchill Dew Point Humidity Pressure Visibility Wind Dir Wind Speed Gust Speed Precip Events Conditions
12:53 AM 23.0 °F 8.3 °F 15.1 °F 72% 29.38 in 9.0 mi NW 19.6 mph 28.8 mph 0.00 in   Overcast
1:53 AM 24.1 °F 10.6 °F 15.1 °F 69% 29.39 in 10.0 mi NW 17.3 mph 31.1 mph 0.00 in   Overcast
2:53 AM 24.1 °F 10.6 °F 14.0 °F 65% 29.39 in 10.0 mi NW 17.3 mph 26.5 mph N/A   Overcast
3:53 AM 24.1 °F 9.4 °F 15.1 °F 69% 29.40 in 10.0 mi NW 20.7 mph 27.6 mph N/A   Overcast
4:53 AM 24.1 °F 9.0 °F 12.9 °F 62% 29.41 in 10.0 mi NW 21.9 mph 31.1 mph 0.00 in   Overcast
5:53 AM 23.0 °F 9.6 °F 14.0 °F 68% 29.42 in 10.0 mi NW 16.1 mph 26.5 mph N/A   Overcast
6:53 AM 23.0 °F 7.6 °F 12.9 °F 65% 29.42 in 10.0 mi NW 21.9 mph 33.4 mph N/A   Overcast
7:53 AM 21.9 °F 8.2 °F 12.9 °F 68% 29.44 in 10.0 mi NW 16.1 mph 29.9 mph N/A   Overcast
8:53 AM 21.9 °F 7.3 °F 12.0 °F 66% 29.44 in 10.0 mi NW 18.4 mph 27.6 mph N/A   Partly Cloudy
9:53 AM 21.0 °F 5.7 °F 12.0 °F 68% 29.45 in 10.0 mi NW 19.6 mph 26.5 mph N/A   Mostly Cloudy
10:53 AM 21.9 °F 7.8 °F 12.0 °F 66% 29.48 in 10.0 mi NW 17.3 mph 27.6 mph N/A   Overcast
11:53 AM 23.0 °F 8.7 °F 10.9 °F 60% 29.49 in 10.0 mi NW 18.4 mph 25.3 mph N/A   Scattered Clouds
12:53 PM 25.0 °F 12.6 °F 12.0 °F 58% 29.52 in 10.0 mi NW 15.0 mph 25.3 mph N/A   Scattered Clouds
1:53 PM 26.1 °F 12.0 °F 12.0 °F 55% 29.53 in 10.0 mi NNW 20.7 mph 31.1 mph N/A   Mostly Cloudy
2:53 PM 25.0 °F 11.7 °F 10.9 °F 55% 29.55 in 10.0 mi NW 17.3 mph 26.5 mph N/A   Mostly Cloudy
3:53 PM 26.1 °F 11.6 °F 12.0 °F 55% 29.56 in 10.0 mi WNW 21.9 mph 28.8 mph N/A   Mostly Cloudy
4:53 PM 26.1 °F 12.3 °F 12.0 °F 55% 29.57 in 10.0 mi NW 19.6 mph 26.5 mph N/A   Mostly Cloudy
5:53 PM 26.1 °F 12.0 °F 12.0 °F 55% 29.59 in 10.0 mi NW 20.7 mph 28.8 mph N/A   Mostly Cloudy
6:53 PM 26.1 °F 14.0 °F 12.0 °F 55% 29.61 in 10.0 mi NNW 15.0 mph 25.3 mph N/A   Mostly Cloudy
7:53 PM 26.1 °F 13.1 °F 12.9 °F 58% 29.62 in 10.0 mi NW 17.3 mph 23.0 mph N/A   Overcast
8:53 PM 27.0 °F 15.2 °F 12.9 °F 56% 29.64 in 10.0 mi NW 15.0 mph 25.3 mph N/A   Overcast
9:53 PM 26.1 °F 14.0 °F 12.9 °F 58% 29.67 in 10.0 mi NW 15.0 mph 24.2 mph N/A   Overcast
10:53 PM 26.1 °F 14.5 °F 14.0 °F 60% 29.69 in 10.0 mi NW 13.8 mph 20.7 mph N/A   Overcast